Location: Clarks Falls
(41.4562°N, 71.8142°W)
Time: 12:53:55
(UTC+00:00)

Daily predictions for brighter satellites

Satellite Brightness Start Highest point End
(mag) Time Altitude Azimuth Time Altitude Azimuth Time Altitude Azimuth
CORIOLIS 4.4 21:38:57 10° SE 21:44:01 48° ENE 21:49:08 10° N
Okean 1-7 Rocket 4.3 21:40:55 10° NNE 21:44:51 32° ENE 21:48:46 10° SE
Cosmos 1602 Rocket 3.8 21:41:38 10° N 21:45:53 49° E 21:50:04 10° SSE
CENTAUR R/B 4.3 21:45:09 10° W 21:49:46 22° NNW 21:55:11 10° NNE
Cosmos 2263 Rocket 3.4 21:46:15 10° N 21:50:27 21° NE 21:54:38 10° E
SL-16 R/B 2.8 21:44:44 10° NNE 21:50:58 76° WNW 21:57:06 10° SSW
NOSS 2-3 (C) 4.0 21:51:42 10° S 21:54:49 30° ESE 21:57:56 10° NE
EXPRESS MD2 3.8 21:53:15 10° S 21:55:11 23° SE 21:57:41 10° ENE
IRIDIUM 114 4.4 21:51:24 10° N 21:56:33 57° E 22:01:40 10° SSE
Cosmos 2151 2.9 21:53:08 10° N 21:57:16 63° E 22:01:23 10° SSE
SAR-Lupe-4 4.2 21:55:46 10° SE 21:58:57 33° ENE 22:02:10 10° N
IGS 5A 3.4 21:55:03 10° S 21:58:59 82° WSW 22:02:58 10° NNW
IRS-1C 4.3 21:56:11 10° SE 22:01:16 48° ENE 22:06:22 10° N
Cosmos 1782 4.0 22:00:13 10° SSW 22:03:37 39° WNW 22:07:01 10° N
IRIDIUM 103 4.3 22:00:30 10° N 22:05:44 70° E 22:10:55 10° S
Cosmos 2227 Rocket 2.5 22:02:16 10° NNW 22:07:40 44° ENE 22:13:02 10° SE
USA 238 DEB 3.8 22:04:30 10° S 22:10:09 45° ESE 22:16:08 11° NE
USA 238 3.9 22:04:38 10° S 22:10:16 45° ESE 22:16:14 11° NE
MOS 1 Rocket 3.7 22:07:50 10° SE 22:12:28 45° ENE 22:17:23 10° N
Cosmos 990 Rocket 3.9 22:07:30 10° S 22:12:34 71° ESE 22:17:42 10° NNE
Cosmos 2084 Rocket 3.3 22:10:09 10° NNW 22:14:22 72° NE 22:18:33 10° SE
Aureole 1 Rocket 4.0 22:12:34 10° SSE 22:16:20 32° E 22:20:55 10° NE
Cosmos 1697 Rocket 2.7 22:11:58 10° SSW 22:17:35 87° WNW 22:23:13 10° NNE
Cosmos 1867 3.5 22:13:24 10° NNW 22:18:51 66° NE 22:24:14 10° SE
Cosmos 1825 Rocket 3.6 22:14:45 10° N 22:19:01 54° E 22:23:13 10° SSE
Cosmos 2098 Rocket 4.4 22:16:36 10° SSW 22:20:27 40° WNW 22:24:58 10° N
NOSS 2-3 (E) 3.0 22:17:15 10° SSW 22:20:58 87° ESE 22:24:06 14° NE
NOSS 2-3 (D) 3.0 22:17:44 10° SSW 22:21:29 80° ESE 22:24:33 15° NE
Cosmos 1900 4.3 22:16:49 10° NNW 22:21:52 76° ENE 22:26:46 10° SE
CZ-2D R/B 4.5 22:18:42 10° ESE 22:22:04 24° ENE 22:25:25 10° NNE
ARIANE 5 R/B 2.4 22:18:22 10° SSE 22:23:24 77° ENE 22:28:32 10° N
IRIDIUM 106 4.5 22:18:49 10° N 22:24:04 80° W 22:29:15 10° S
Cosmos 1655 Rocket 4.0 22:23:56 10° N 22:30:03 55° E 22:36:07 10° SSE
UNK 4.5 22:26:26 10° N 22:30:53 54° WNW 22:35:18 10° SSW
SJ-6F 4.3 22:31:10 10° SSE 22:35:04 65° ENE 22:39:03 10° N
Cosmos 1076 Rocket 3.6 22:31:44 10° N 22:35:58 52° E 22:40:11 10° SSE
SMAP 3.8 22:32:33 10° S 22:37:07 56° W 22:41:42 10° NNW
ATLAS CENTAUR R/B 4.1 22:35:18 10° WNW 22:37:14 15° WSW 22:39:08 10° SSW
SAR-Lupe-3 3.4 22:36:47 32° NNE 22:37:45 68° ESE 22:40:12 10° S
USA 81 4.4 22:32:51 10° N 22:37:51 41° E 22:42:47 10° SSE
COSMOS 2455 4.1 22:33:55 10° SSE 22:38:09 20° ESE 22:39:11 19° E
Cosmos 2058 Rocket 3.5 22:34:51 10° SSE 22:39:02 41° E 22:42:19 16° NNE
COSMO-SKYMED 1 3.1 22:38:13 23° NE 22:39:55 33° E 22:43:38 10° SSE
SPOT 1/Viking Rocket 3.6 22:36:07 10° SSE 22:41:09 53° ENE 22:46:13 10° N
Landsat 7 4.2 22:37:13 10° S 22:41:49 66° W 22:46:28 10° NNW
Gbstr 26 Del rocket 3.7 22:40:00 10° W 22:43:49 37° NNW 22:45:43 22° NNE
Meteor 2-2 Rocket 4.5 22:40:20 10° SSE 22:45:39 44° E 22:50:32 12° NNE
Cosmos 1606 Rocket 4.5 22:45:25 10° SSW 22:49:41 49° W 22:54:00 10° N
IRS-P3 4.1 22:45:21 10° SSE 22:50:40 87° WSW 22:56:01 10° NNW
SL-19 R/B 4.5 22:49:21 10° SE 22:54:25 44° ENE 22:59:43 10° N
Cosmos 2082 4.3 22:49:51 10° N 22:55:01 34° ENE 22:56:33 29° E
CZ-2D R/B 4.5 22:53:56 10° SSW 22:56:49 34° W 22:59:44 10° NNW
Hubble Space Telescope 3.2 22:57:58 10° S 22:58:41 10° S 22:59:24 10° SSE
Cosmos 2297 Rocket 4.2 22:55:10 10° NW 23:00:00 30° WSW 23:04:48 10° SSW
Resurs 1-3 3.6 22:57:32 10° SSE 23:01:42 53° ENE 23:05:54 10° N
Cosmos 1538 Rocket 3.9 22:57:26 10° NNW 23:02:44 70° ENE 23:08:02 10° SSE
SL-16 R/B 3.8 22:59:42 10° SSE 23:01:52 17° SE 23:01:52 17° SE
CZ-4C R/B 3.7 22:57:40 10° NW 23:04:59 61° WSW 23:13:45 10° SSE
Meteor 1-26 Rocket 4.0 23:03:08 10° S 23:08:31 72° E 23:12:48 16° NNE
Okean 1 2.9 23:09:48 10° S 23:13:12 74° SE 23:13:12 74° SE
Nadezhda 2 Rocket 4.3 23:12:25 10° N 23:18:30 64° E 23:24:32 10° SSE
Cosmos 2219 3.1 23:15:11 10° NNW 23:20:55 66° ENE 23:24:18 25° SE
Cosmos 1980 Rocket 2.6 23:15:36 10° SW 23:21:10 60° WNW 23:25:04 20° NNE
Cosmos 1553 Rocket 3.8 23:16:34 10° S 23:22:40 76° E 23:28:55 10° N
Spot 4 Rocket 3.9 23:18:02 10° SSE 23:23:08 88° WSW 23:28:17 10° NNW
Cosmos-2242 3.2 23:19:27 10° SSW 23:23:38 67° W 23:25:43 29° N
YAOGAN 1 2.5 23:20:33 10° S 23:24:48 82° WSW 23:29:05 10° NNW
Cosmos 1898 Rocket 3.6 23:23:21 10° SSW 23:28:28 71° WNW 23:30:53 32° N
OceanSat 1 rocket 4.4 23:25:53 10° SSE 23:30:38 83° ENE 23:35:23 10° NNW
SL-24 R/B - RUBIN 2 3.9 23:29:02 10° SSW 23:34:30 67° SE 23:34:30 67° SE
Cosmos 2369 3.7 23:28:52 10° SSW 23:34:35 83° WNW 23:36:34 43° NNE
Cosmos 2263 Rocket 2.5 23:29:13 10° NNW 23:34:51 66° WSW 23:40:27 10° S
Cosmos 1937 Rocket 3.7 23:41:46 10° SSW 23:46:55 66° WNW 23:47:52 54° NNW
Cosmos 858 Rocket 4.5 23:44:04 10° SSW 23:48:48 75° SSW 23:48:48 75° SSW
Cosmos 2227 Rocket 4.3 23:46:48 10° NW 23:51:24 26° WSW 23:55:59 10° SSW
